This demonstration page uses our WeatherBlox Daily Observations layout. Learn more.

Left ArrowRight Arrow

34.16533, -84.80231

Hourly Observations for October 24, 2021

Temp ( °F °C ) Dew Point ( °F °C ) Humidity (%) Winds ( mph kmh ) Pressure ( in mb ) Visibility ( mi km ) Precip ( " mm )
12:15 am 00:15 Clear 52 11 50 10 94 94 N N/A 30.09 1019 9 14 N/A
12:35 am 00:35 Clear 52 11 50 10 94 94 N N/A 30.09 1019 9 14 N/A
12:55 am 00:55 Clear 50 10 50 10 100 100 N N/A 30.10 1019 7 11 N/A
1:15 am 01:15 Clear 50 10 50 10 100 100 N N/A 30.09 1019 7 11 N/A
1:35 am 01:35 Clear 50 10 50 10 100 100 N N/A 30.09 1019 7 11 N/A
1:55 am 01:55 Clear 50 10 50 10 100 100 N N/A 30.09 1019 7 11 N/A
2:15 am 02:15 Clear 50 10 48 9 94 94 N N/A 30.10 1019 8 13 N/A
2:35 am 02:35 Clear 50 10 50 10 100 100 N N/A 30.10 1019 7 11 N/A
2:55 am 02:55 Clear with Mist and Fog 50 10 48 9 94 94 N N/A 30.10 1019 6 10 N/A
3:15 am 03:15 Clear with Mist and Fog 50 10 48 9 94 94 N N/A 30.10 1019 5 8 N/A
3:35 am 03:35 Clear 50 10 48 9 94 94 N N/A 30.11 1020 7 11 N/A
3:55 am 03:55 Clear with Mist and Fog 48 9 48 9 100 100 N N/A 30.11 1020 6 10 N/A
4:15 am 04:15 Clear 48 9 48 9 100 100 N N/A 30.12 1020 7 11 N/A
4:35 am 04:35 Clear 48 9 48 9 100 100 N N/A 30.11 1020 7 11 N/A
4:55 am 04:55 Clear 48 9 48 9 100 100 N N/A 30.11 1020 7 11 N/A
5:15 am 05:15 Clear with Mist and Fog 48 9 48 9 100 100 N N/A 30.11 1020 4 6 N/A
5:35 am 05:35 Clear with Mist and Fog 48 9 46 8 94 94 N N/A 30.12 1020 2 2 N/A
5:55 am 05:55 Clear with Mist and Fog 48 9 48 9 100 100 N N/A 30.12 1020 5 8 N/A
6:15 am 06:15 Clear with Mist and Fog 48 9 48 9 100 100 N N/A 30.12 1020 5 8 N/A
6:35 am 06:35 Clear with Mist and Fog 48 9 48 9 100 100 N N/A 30.12 1020 6 10 N/A
6:55 am 06:55 Clear with Mist and Fog 48 9 46 8 94 94 N N/A 30.12 1020 4 6 N/A
7:15 am 07:15 Clear with Mist and Fog 48 9 48 9 100 100 N N/A 30.12 1020 6 10 N/A
7:35 am 07:35 Clear with Mist and Fog 50 10 50 10 100 100 N N/A 30.12 1020 6 10 N/A
7:55 am 07:55 Sunny with Mist and Fog 50 10 48 9 94 94 N N/A 30.13 1020 5 8 N/A
8:15 am 08:15 Sunny with Mist and Fog 50 10 50 10 100 100 N N/A 30.14 1021 5 8 N/A
8:35 am 08:35 Sunny with Mist and Fog 50 10 50 10 100 100 N N/A 30.14 1021 5 8 N/A
8:55 am 08:55 Sunny with Mist and Fog 50 10 50 10 100 100 N N/A 30.14 1021 4 6 N/A
9:15 am 09:15 Sunny with Mist and Fog 52 11 52 11 100 100 N N/A 30.15 1021 5 8 N/A
9:35 am 09:35 Sunny 54 12 54 12 100 100 N N/A 30.14 1021 7 11 N/A
9:55 am 09:55 Sunny 57 14 54 12 88 88 E 5 7 30.13 1020 9 14 N/A
10:15 am 10:15 Sunny 59 15 54 12 82 82 ESE 6 9 30.13 1020 9 14 N/A
10:35 am 10:35 Sunny 59 15 54 12 82 82 E 5 7 30.13 1020 9 14 N/A
10:55 am 10:55 Sunny 61 16 55 13 83 83 E 6 9 30.12 1020 9 14 N/A
11:15 am 11:15 Sunny 64 18 55 13 73 73 VRB 3 6 30.13 1020 10 16 N/A
11:35 am 11:35 Sunny 66 19 55 13 68 68 VRB 3 6 30.12 1020 10 16 N/A
11:55 am 11:55 Sunny 68 20 55 13 64 64 N N/A 30.12 1020 10 16 N/A
12:15 pm 12:15 Sunny 70 21 55 13 60 60 VRB 7 11 30.12 1020 10 16 N/A
12:35 pm 12:35 Sunny 72 22 55 13 57 57 VRB 5 7 30.11 1020 10 16 N/A
12:55 pm 12:55 Sunny 72 22 55 13 57 57 N N/A 30.10 1019 10 16 N/A
1:15 pm 13:15 Sunny 73 23 54 12 50 50 VRB 6 9 30.08 1019 10 16 N/A
1:35 pm 13:35 Sunny 75 24 52 11 44 44 SE 8 13 30.07 1018 10 16 N/A
1:55 pm 13:55 Sunny 75 24 52 11 44 44 SSE 6 9 30.07 1018 10 16 N/A
2:15 pm 14:15 Sunny 75 24 52 11 44 44 SE 6 9 30.06 1018 10 16 N/A
2:35 pm 14:35 Sunny 73 23 54 12 50 50 N N/A 30.05 1018 10 16 N/A
2:55 pm 14:55 Sunny 75 24 52 11 44 44 N N/A 30.05 1018 10 16 N/A
3:15 pm 15:15 Sunny 75 24 52 11 44 44 N N/A 30.05 1018 10 16 N/A
3:35 pm 15:35 Sunny 77 25 52 11 42 42 S 5 7 30.05 1018 10 16 N/A
3:55 pm 15:55 Sunny 77 25 52 11 42 42 VRB 5 7 30.05 1018 10 16 N/A
4:15 pm 16:15 Sunny 77 25 52 11 42 42 N N/A 30.04 1017 10 16 N/A
4:35 pm 16:35 Sunny 75 24 52 11 44 44 SE 6 9 30.04 1017 10 16 N/A
4:55 pm 16:55 Sunny 75 24 52 11 44 44 N N/A 30.04 1017 10 16 N/A
5:15 pm 17:15 Sunny 73 23 54 12 50 50 N N/A 30.04 1017 10 16 N/A
5:35 pm 17:35 Sunny 73 23 54 12 50 50 N N/A 30.04 1017 10 16 N/A
5:55 pm 17:55 Sunny 72 22 55 13 57 57 N N/A 30.05 1018 10 16 N/A
6:15 pm 18:15 Sunny 70 21 57 14 64 64 N N/A 30.04 1017 10 16 N/A
6:35 pm 18:35 Sunny 68 20 61 16 78 78 N N/A 30.04 1017 9 14 N/A
6:55 pm 18:55 Clear 68 20 59 15 73 73 N N/A 30.03 1017 10 16 N/A
7:15 pm 19:15 Clear 66 19 59 15 78 78 N N/A 30.03 1017 10 16 N/A
7:35 pm 19:35 Clear 66 19 59 15 78 78 N N/A 30.04 1017 10 16 N/A
7:55 pm 19:55 Clear 66 19 59 15 78 78 N N/A 30.04 1017 10 16 N/A
8:15 pm 20:15 Clear 66 19 59 15 78 78 N N/A 30.04 1017 10 16 N/A
8:35 pm 20:35 Clear 66 19 57 14 73 73 N N/A 30.04 1017 10 16 N/A
8:55 pm 20:55 Mostly Clear 64 18 59 15 83 83 N N/A 30.05 1018 10 16 N/A
9:15 pm 21:15 Clear 64 18 59 15 83 83 N N/A 30.05 1018 10 16 N/A
9:35 pm 21:35 Clear 64 18 59 15 83 83 N N/A 30.05 1018 10 16 N/A
9:55 pm 21:55 Clear 63 17 59 15 88 88 N N/A 30.05 1018 10 16 N/A
10:15 pm 22:15 Clear 63 17 59 15 88 88 N N/A 30.05 1018 10 16 N/A
10:35 pm 22:35 Clear 61 16 59 15 94 94 N N/A 30.05 1018 9 14 N/A
10:55 pm 22:55 Clear 61 16 57 14 88 88 N N/A 30.05 1018 9 14 N/A
11:15 pm 23:15 Clear 63 17 57 14 83 83 N N/A 30.06 1018 10 16 N/A
11:35 pm 23:35 Mostly Clear 61 16 57 14 88 88 N N/A 30.05 1018 10 16 N/A
11:55 pm 23:55 Clear 61 16 57 14 88 88 E 5 7 30.04 1017 10 16 N/A

Powered by AerisWeather